Flag for Puerto Rico Weather past 2 weeks in San Juan, Puerto Rico

Now
82 °F

Passing clouds.


Feels Like: 89 °F
Forecast: 80 / 87 °F
Wind: 9 mph from East

Location: Luis Munoz Marin

Current Time: Aug 1, 2015 at 12:28:35 AM

Latest Report: Jul 31, 2015 at 11:56 PM


Visibility: 10 mi

Pressure: 30.06 "Hg

Humidity: 79%

Dew point: 75 °F

Location of San JuanLocation

Historic Weather in San Juan — Graph

°F

San Juan temperature yesterday

Maximum temperature yesterday: 90 °F (at 11:56 AM)
Minimum temperature yesterday: 80 °F (at 1:56 AM)
Average temperature yesterday: 84 °F

Past Weeks' High & Low Weather Summary

 TemperatureHumidityPressure
High93 °F (Jul 22, 2:56 PM)100% (Jul 21, 4:56 AM)30.12 "Hg (Jul 21, 4:56 AM)
Low76 °F (Jul 19, 3:56 AM)52% (Jul 22, 2:56 PM)29.96 "Hg (Jul 21, 4:56 PM)
Average83 °F78%30.04 "Hg
* Reported Jul 16 10:56 PM — Jul 31 10:56 PM, San Juan, Weather by CustomWeather, © 2015

Note: Actual official high and low records may vary slightly from our data, if they occured in-between our weather recording intervals... More about our weather records

Advertising

San Juan weather history for previous 24 hours

 ConditionsComfort  
Time TempWeatherWind HumidityBarometerVisibility
10:56 PM
Fri, Jul 31
82 °FPassing clouds.10 mph79%30.07 "Hg10 mi
9:56 PM81 °FPassing clouds.10 mph85%30.06 "Hg10 mi
8:56 PM83 °FPassing clouds.8 mph79%30.04 "Hg10 mi
7:56 PM83 °FPassing clouds.9 mph79%30.02 "Hg10 mi
6:56 PM84 °FScattered clouds.12 mph77%30.02 "Hg10 mi
5:56 PM85 °FScattered clouds.14 mph75%30.01 "Hg9 mi
4:56 PM86 °FScattered clouds.15 mph77%29.99 "Hg9 mi
3:56 PM88 °FScattered clouds.20 mph70%30.00 "Hg10 mi
2:56 PM86 °FScattered clouds.20 mph75%30.01 "Hg10 mi
1:56 PM89 °FScattered clouds.21 mph65%30.02 "Hg10 mi
12:56 PM89 °FScattered clouds.20 mph68%30.05 "Hg10 mi
11:56 AM90 °FScattered clouds.17 mph63%30.06 "Hg10 mi
10:56 AM87 °FBroken clouds.16 mph72%30.06 "Hg10 mi
9:56 AM87 °FBroken clouds.12 mph72%30.07 "Hg10 mi
8:56 AM86 °FScattered clouds.18 mph75%30.06 "Hg10 mi
7:56 AM84 °FScattered clouds.6 mph80%30.05 "Hg10 mi
6:56 AM81 °FPassing clouds.6 mph88%30.04 "Hg10 mi
5:56 AM80 °FLight rain. Partly cloudy.6 mph90%30.03 "Hg8 mi
4:56 AM81 °FPartly cloudy.6 mph85%30.01 "Hg10 mi
3:56 AM80 °FPassing clouds.7 mph85%30.01 "Hg10 mi
2:56 AM80 °FPassing clouds.6 mph87%30.02 "Hg10 mi
1:56 AM80 °FPassing clouds.6 mph87%30.03 "Hg10 mi
12:56 AM81 °FPassing clouds.6 mph85%30.05 "Hg10 mi
Weather by CustomWeather, © 2015

See weather overviewHow to use our weather pages